Lapse_Rate
0.7 0.5 -0.2 -0.4 -0.3 0.3 0.3 -0.0 0.6 1.6 2.6 3.6 3.7 3.6 4.0 4.2 4.4 4.3 4.2 4.4 4.3 4.3 3.9 3.6 4.0 4.0 4.4 4.5 4.1 5.4 5.1 6.0 6.4 0.2 -0.6 -1.4 -1.4 -1.0 -1.5 -1.1 -0.8 -0.6 -0.2
0.4 -0.1 -1.1 -0.9 -0.6 0.0 0.2 -0.0 -0.2 -0.3 0.9 2.4 3.4 4.3 4.4 4.1 4.1 3.8 4.4 4.1 4.8 4.6 4.0 4.0 3.8 4.2 4.6 4.5 5.1 4.8 5.0 5.1 5.9 0.7 -1.3 -1.9 -1.3 -2.1 -2.7 -3.1 -3.3 -2.9 -2.5
0.2 0.1 -0.5 -1.1 -1.3 -1.5 -1.0 -0.5 -0.0 -0.0 -0.1 0.4 2.5 3.9 5.0 5.0 4.7 4.4 4.1 4.2 4.5 4.6 4.3 4.4 4.5 4.7 4.5 4.2 4.9 4.7 4.5 4.5 4.7 1.2 -0.6 -2.3 -3.0 -3.0 -3.9 -4.0 -4.1 -4.1 -3.5
0.4 0.1 -1.0 -1.1 -1.2 -1.1 -0.9 -1.1 -1.2 -0.9 -0.8 0.0 0.7 2.3 3.4 5.4 4.9 4.6 4.6 4.5 4.5 4.6 4.5 4.6 4.8 4.6 4.4 4.1 4.6 4.6 4.4 4.6 3.1 1.6 1.3 -0.3 -1.4 -3.0 -2.6 -4.0 -3.3 -3.2 -3.9
1.0 0.4 0.0 -0.4 -0.8 -0.5 -0.4 -0.5 -0.5 -0.5 -0.8 -1.1 -0.8 0.6 2.4 3.9 4.9 4.8 4.5 4.4 4.2 3.9 3.8 3.7 4.1 3.6 1.8 3.2 4.6 5.0 5.1 4.9 1.6 1.1 0.1 -1.0 -1.8 -2.2 -2.2 -2.4 -3.1 -4.2 -4.2
2.2 1.1 -0.2 -1.1 -1.5 -0.9 -0.3 0.1 -0.4 -0.4 -0.7 -1.1 -0.9 -0.7 0.4 3.0 2.2 0.7 3.2 4.3 3.8 3.8 3.6 3.9 4.1 1.6 1.1 0.3 0.1 1.2 3.7 2.7 1.9 1.0 0.3 -0.7 -1.3 -1.7 -2.3 -2.6 -3.8 -3.4 -1.4
2.5 1.0 -0.5 -1.1 -1.5 -0.8 -0.4 -0.3 -0.6 -0.8 -0.8 -0.7 -0.4 -0.0 0.0 1.5 0.0 0.2 -0.1 4.0 3.7 3.6 3.4 2.7 1.6 1.3 1.3 2.4 -0.2 -0.8 -0.8 -0.6 0.9 1.6 0.7 0.1 -1.4 -2.2 -2.8 -2.6 -3.2 -3.1 -4.2
1.3 0.9 0.6 0.2 0.4 1.2 1.2 0.6 -0.5 -0.8 -1.1 -0.8 -0.4 -0.2 -0.5 -0.6 -1.6 -1.2 -0.8 2.6 3.2 2.9 1.8 1.0 1.0 -1.0 -0.4 0.2 0.4 -1.0 -2.2 -0.2 -0.1 0.1 1.6 0.5 -0.4 -2.3 -2.7 -2.3 -3.4 -3.9 -3.6
3.2 2.1 1.9 1.8 1.7 1.2 0.1 -0.5 -0.8 -1.4 -1.0 -0.6 -0.2 -0.1 -0.5 -2.0 -2.6 -2.6 -2.9 1.6 -0.1 -1.6 -3.6 -3.3 -2.3 -1.3 -2.2 -1.1 -1.4 -1.6 -3.6 -3.9 -4.0 -1.6 -0.9 -0.7 -2.0 -2.4 -1.9 -2.2 -2.8 -1.2 -0.8
2.5 2.2 2.3 2.1 2.1 1.7 0.9 -0.3 -0.6 -0.5 -0.2 -0.4 -0.5 -0.2 -1.0 -2.5 -2.2 -1.9 -2.6 0.3 -0.7 -2.3 -4.5 -5.3 -4.3 -4.1 -4.4 -3.6 -1.6 -1.9 -2.3 -3.4 -4.1 -3.8 -3.8 -2.8 -2.5 -1.8 -1.9 -0.5 -2.9 -1.2 -3.4
3.0 2.8 2.9 2.6 2.7 2.5 1.5 0.9 0.6 0.2 0.2 0.0 -0.3 -0.7 -1.0 -2.4 -1.8 -1.2 -1.9 -2.1 -1.7 -3.1 -3.5 -4.9 -5.7 -5.2 -4.6 -4.0 -3.5 -3.1 -2.6 -4.6 -4.6 -4.0 -3.4 -2.3 -1.6 -1.0 -0.4 -0.7 -0.6 1.0 -1.0
2.8 2.8 2.9 3.2 3.5 3.9 3.1 2.7 1.8 1.6 0.8 0.7 0.3 -0.6 -0.6 -2.0 -1.5 -1.7 -2.1 -2.7 -2.9 -3.3 -3.4 -5.1 -5.1 -4.3 -4.9 -4.5 -4.9 -5.0 -4.8 -4.7 -4.6 -4.0 -3.1 -1.8 -1.6 -2.4 -2.2 -2.0 -1.3 -1.6 -1.6
3.5 3.6 3.8 3.2 3.3 3.5 3.5 3.4 3.4 2.2 1.3 0.7 1.0 1.2 0.3 -1.0 -0.4 -1.5 -2.0 -2.0 -3.4 -4.2 -4.8 -5.1 -5.0 -4.7 -5.3 -5.5 -5.2 -5.1 -4.5 -4.0 -3.6 -2.9 -2.9 -3.3 -3.7 -3.4 -2.4 -1.7 -2.0 -2.8 -3.3
2.9 2.2 2.4 2.0 2.6 1.7 1.6 2.3 2.2 2.8 2.1 1.9 1.2 1.4 3.0 1.4 -0.2 -1.1 -1.1 -1.2 -2.2 -2.9 -3.5 -4.5 -5.8 -6.3 -6.3 -6.3 -6.2 -5.7 -4.1 -3.5 -3.1 -3.8 -4.0 -3.3 -2.3 -1.4 -1.4 -1.4 -2.0 -3.1 -3.4
4.1 3.1 2.7 2.3 1.7 1.7 1.9 2.4 3.0 2.7 4.4 5.6 3.9 2.7 4.0 3.2 1.3 1.0 0.7 -0.1 -2.3 -3.7 -4.6 -4.5 -4.5 -5.0 -6.2 -5.7 -5.4 -4.7 -3.7 -2.6 -2.8 -2.2 -2.3 -2.0 -1.3 -1.0 -1.5 -1.6 -1.9 -2.1 -2.3
4.1 3.9 4.2 3.7 3.0 2.8 2.8 2.1 4.7 5.1 5.3 4.9 4.6 4.9 3.6 3.1 3.3 2.9 2.5 1.3 0.1 -0.7 -1.6 -3.3 -2.4 -2.1 -2.8 -4.6 -4.6 -3.8 -2.0 -1.7 -1.5 -1.3 -1.4 -1.2 -1.4 -1.2 -1.4 -0.4 -0.7 -1.1 -1.6
3.3 3.7 3.5 3.6 3.6 4.1 4.2 3.9 3.3 3.4 5.1 5.0 4.8 4.8 4.6 4.5 4.5 4.4 3.4 2.8 2.0 0.3 -0.5 -1.2 -0.5 -0.0 -1.0 -1.1 -2.7 -2.2 -1.5 -0.7 -1.0 -0.6 -1.0 -0.6 -0.0 0.2 0.2 0.2 0.2 -0.2 0.6
2.3 2.8 3.0 3.5 4.2 4.6 4.4 4.2 3.8 3.7 3.6 3.4 4.4 4.8 5.6 5.8 6.4 6.5 5.5 3.2 1.6 1.6 0.8 0.3 0.2 0.7 0.6 0.7 0.4 -0.2 -0.6 -0.0 0.1 -0.0 -0.0 0.2 0.5 0.5 1.3 1.7 1.1 0.1 -0.1
2.3 3.1 3.5 4.0 4.4 4.8 5.0 4.6 4.4 4.1 3.7 3.4 3.2 3.5 3.6 5.3 5.2 5.2 4.8 3.4 2.8 2.6 2.3 1.4 1.5 1.5 2.4 2.8 2.7 2.5 1.7 1.6 0.9 0.6 0.6 0.8 1.7 3.1 2.0 1.6 0.4 -0.1 0.7
2.3 3.4 3.8 4.1 4.3 4.5 4.5 4.3 4.3 4.4 4.2 4.2 4.1 4.3 4.2 4.1 3.7 4.0 3.9 4.1 3.7 3.3 3.1 2.6 2.8 2.5 2.6 3.1 3.2 2.9 2.2 2.0 1.7 1.1 1.2 1.5 1.9 2.2 1.8 0.8 0.8 0.8 1.2
2.3 3.1 3.2 3.7 4.4 4.7 4.7 4.7 4.5 4.4 4.3 4.4 4.5 4.4 5.0 4.9 5.0 4.8 4.6 4.4 4.3 4.3 4.1 3.8 3.6 3.0 2.4 1.9 2.0 1.9 1.7 1.5 1.7 1.6 2.2 2.6 1.4 0.6 0.5 0.7 0.8 1.1 1.0
2.6 3.0 3.7 3.8 4.2 4.3 4.1 4.3 4.2 4.1 4.0 4.0 4.1 4.1 3.9 3.6 3.9 4.2 3.9 3.8 3.8 3.8 3.6 3.3 3.3 3.5 3.2 2.4 2.0 1.8 1.7 2.0 2.3 2.5 1.5 1.0 0.9 0.6 0.4 0.3 0.6 1.0 1.4
3.3 3.4 3.9 4.0 3.8 4.0 3.8 3.5 3.5 3.8 3.8 3.7 3.6 3.5 3.3 3.2 3.2 3.1 2.7 2.5 2.3 2.2 2.2 1.9 1.6 1.3 0.9 0.8 1.2 1.9 1.5 1.2 1.1 0.8 0.3 0.4 0.5 0.3 0.4 0.4 0.7 0.9 1.3
3.6 3.5 4.0 3.7 3.6 3.4 3.5 3.4 3.2 3.4 3.5 3.3 3.2 3.0 2.8 2.5 2.2 2.1 1.8 1.5 1.0 0.7 0.5 0.2 0.2 1.1 1.3 0.9 0.5 0.3 0.2 0.3 0.6 0.5 0.1 -0.2 -0.3 0.2 0.1 0.0 0.4 0.5 0.4
3.8 3.6 3.3 3.5 3.4 3.3 3.3 3.5 3.3 3.0 3.0 2.8 2.7 2.4 2.2 2.0 1.6 1.2 0.9 0.5 0.2 -0.1 -0.3 -0.1 0.1 0.1 -0.8 -0.8 -0.4 0.1 0.7 0.9 1.0 0.2 0.3 0.2 -0.1 0.3 0.2 0.1 0.1 0.1 0.3
4.1 3.8 3.7 3.4 3.2 3.2 3.0 3.0 3.1 3.0 2.8 2.7 2.4 2.1 1.8 1.6 1.3 0.8 0.4 -0.1 -0.6 -0.8 -0.7 -0.7 -0.8 -1.2 -1.0 -0.8 -0.5 -0.9 -0.8 -0.6 -0.5 -0.1 0.1 0.2 -0.0 -0.1 0.2 0.0 -0.1 0.3 0.2
Wind_Speed
12 7 10 10 12 9 7 7 7 6 6 8 6 6 8 9 12 12 12 12 15 14 13 13 13 11 7 8 9 9 9 9 10 1 2 3 3 9 8 16 17 17 21
10 11 12 11 11 10 10 11 10 9 8 8 8 8 8 9 10 12 13 11 14 14 14 13 12 9 11 10 9 12 11 12 11 6 2 3 3 11 8 10 12 16 19
10 9 9 9 9 10 11 9 9 9 9 9 8 8 7 9 10 12 12 12 14 13 12 13 13 12 11 10 9 9 10 10 11 7 5 2 3 7 8 7 8 14 16
12 11 11 10 9 9 10 10 11 9 8 8 9 9 9 9 8 9 11 12 13 13 13 12 12 13 13 11 9 9 7 8 6 7 6 8 5 5 8 12 7 5 9
13 11 9 9 9 9 9 9 9 8 8 10 11 9 9 9 8 10 11 11 11 10 10 12 12 12 13 11 7 8 10 10 8 10 7 5 5 8 13 8 8 8 6
10 10 11 11 12 11 10 10 9 10 10 11 12 12 11 7 12 13 11 10 12 12 11 10 9 11 12 15 15 13 12 11 12 10 9 14 13 13 8 13 12 8 4
11 11 12 13 13 12 12 12 12 12 11 10 10 10 11 11 14 16 17 12 11 13 12 9 7 6 10 8 12 15 14 17 21 18 16 15 14 18 15 15 15 13 5
13 13 12 12 12 12 12 12 13 12 12 11 11 11 11 10 13 17 17 15 10 10 9 8 8 8 8 8 8 7 6 10 14 11 16 17 18 20 22 20 17 10 9
11 12 13 13 14 14 13 12 11 12 12 11 10 11 11 10 13 13 9 11 6 7 5 3 7 8 9 10 7 7 4 3 2 4 2 9 15 28 22 13 13 13 4
14 15 13 13 13 14 14 12 11 11 13 10 10 9 10 9 12 13 9 6 6 6 3 6 7 7 10 13 8 8 7 5 5 5 5 9 14 17 26 20 19 17 7
14 15 14 13 13 14 12 11 11 12 12 10 10 8 7 6 8 12 10 3 4 4 5 4 2 6 9 9 7 6 6 9 7 8 7 8 9 10 8 2 9 10 10
15 15 15 13 10 10 12 12 12 11 11 10 10 8 4 4 7 8 9 5 1 2 3 4 5 11 13 12 7 17 17 12 8 8 8 8 8 6 5 7 11 13 11
14 14 14 14 12 10 11 10 9 10 9 10 8 8 7 2 3 8 5 2 4 2 4 5 18 18 20 14 17 18 12 8 9 9 8 7 6 7 10 10 18 26 24
15 13 11 10 12 9 7 6 7 7 10 10 10 9 8 2 2 2 2 2 10 10 14 9 7 11 13 11 8 7 6 7 9 9 9 8 7 7 8 8 10 10 12
11 9 9 8 9 9 8 6 6 6 9 11 10 8 8 7 2 3 2 1 4 7 10 6 5 4 8 8 7 8 8 8 9 9 11 10 9 9 8 8 7 8 10
9 7 6 6 6 6 7 9 16 16 18 24 25 9 5 7 7 8 7 11 16 9 4 6 4 3 5 8 9 8 8 10 9 9 10 10 10 10 9 8 9 10 12
9 9 7 7 8 8 8 7 8 12 17 19 28 26 13 5 2 5 11 14 9 7 6 6 5 4 5 5 8 9 9 8 11 9 10 10 10 10 11 10 10 10 9
8 10 8 8 8 7 7 7 6 7 7 8 13 20 24 23 18 14 11 9 5 6 6 7 7 6 6 6 7 9 10 10 10 10 11 10 10 10 10 10 9 10 10
7 7 7 6 6 7 6 6 6 6 7 7 7 9 11 16 17 17 15 5 5 5 6 8 7 8 7 7 7 8 10 10 11 11 10 10 9 9 9 9 10 13 12
6 9 7 6 6 6 6 6 6 6 6 7 7 7 7 7 7 7 7 5 5 5 6 8 9 9 10 9 9 9 10 11 10 11 10 9 8 8 9 10 8 9 8
4 5 7 5 6 6 6 6 5 5 6 6 7 9 13 6 6 7 7 7 7 7 7 7 8 8 9 10 10 9 10 11 10 11 10 9 9 9 9 8 8 8 8
4 4 5 5 5 6 6 5 6 6 6 6 6 8 14 8 8 8 8 9 8 8 8 9 9 9 8 9 10 10 11 10 10 10 10 10 9 9 9 9 8 7 7
4 5 5 5 5 6 5 6 6 6 6 7 7 7 8 8 8 8 9 8 9 9 9 10 10 10 11 15 16 12 10 9 8 9 11 10 9 8 8 8 7 7 6
5 5 5 5 5 5 5 6 6 8 7 7 7 7 8 8 9 9 9 8 9 10 12 12 12 13 13 16 18 19 19 18 18 17 16 10 9 9 8 8 7 8 7
5 5 5 4 5 5 5 6 6 6 7 7 7 7 8 8 8 8 8 8 9 11 13 16 17 21 22 22 22 22 23 24 20 19 18 17 12 11 9 8 7 7 7
5 5 4 4 4 5 5 5 5 6 6 6 6 7 7 7 7 8 8 10 10 10 13 17 20 23 22 21 23 24 24 23 22 21 18 16 9 8 7 9 10 6 7
Wind_Direction
43 32 42 24 17 3 354 352 338 322 325 319 283 243 227 220 211 200 200 199 201 201 197 192 199 197 195 194 205 207 210 212 214 103 114 145 129 137 128 123 131 133 144
34 22 34 22 11 353 342 340 336 337 331 318 321 278 244 219 211 211 205 196 200 200 197 194 199 196 205 207 201 204 206 208 213 157 152 135 176 144 127 119 118 118 122
21 22 21 20 357 347 334 330 323 320 323 324 308 312 268 240 223 209 209 199 201 203 200 198 206 200 204 205 204 207 208 211 209 166 147 139 111 147 119 101 109 109 112
8 12 13 3 348 334 322 325 326 321 317 321 319 304 304 259 237 221 214 208 207 204 199 204 207 204 204 199 203 200 202 203 164 172 172 158 150 152 138 138 131 128 125
358 358 348 343 341 329 327 321 313 314 330 323 319 311 308 312 233 228 219 207 205 201 201 196 196 195 190 193 202 216 215 214 164 165 163 148 145 163 165 163 140 135 121
344 340 342 343 347 333 325 316 325 339 334 327 322 319 314 306 294 217 216 215 206 197 200 198 196 193 206 205 205 206 197 169 176 175 171 180 177 178 158 162 148 145 162
345 343 344 340 336 329 330 329 338 334 325 318 310 308 307 307 312 267 224 219 211 209 200 191 193 191 194 211 223 221 220 189 181 178 184 187 175 181 166 168 172 165 153
345 341 337 336 332 325 330 327 332 331 325 316 310 308 302 305 310 311 243 225 219 209 194 178 193 197 202 194 210 213 203 198 196 195 194 192 192 175 182 177 163 124 108
338 336 335 337 331 333 334 335 334 329 317 308 306 304 303 307 313 310 312 247 187 178 155 181 191 198 200 191 184 196 155 166 54 161 230 183 177 177 168 142 150 148 128
338 339 340 339 333 333 333 333 326 318 306 306 303 304 299 308 315 312 288 238 204 172 203 139 198 187 175 178 183 178 187 191 147 118 103 116 144 171 174 177 165 166 140
339 340 341 339 334 335 330 327 323 315 309 303 300 303 300 317 320 316 312 290 224 178 174 160 164 178 163 172 160 169 184 127 109 109 108 120 137 153 167 151 175 174 165
343 341 341 336 336 337 330 323 319 319 318 318 314 307 300 324 329 322 316 299 241 156 204 137 131 127 117 113 106 121 120 113 114 112 116 122 126 111 93 99 90 89 80
344 342 340 338 335 332 328 322 324 333 335 328 325 313 308 345 338 12 10 127 116 93 114 120 122 117 109 99 115 119 122 123 123 121 119 108 101 110 107 92 89 90 83
341 333 332 332 337 329 322 326 324 329 341 334 321 310 306 290 298 2 13 94 106 108 111 104 99 106 101 104 96 83 104 118 123 122 114 107 105 103 98 108 111 106 97
330 322 329 329 329 330 335 322 325 310 330 330 316 299 294 284 227 202 165 56 91 98 113 113 101 114 117 111 98 97 101 106 109 121 121 120 110 106 99 107 100 94 104
341 336 324 318 324 336 340 336 338 356 352 2 350 319 297 280 188 175 150 129 127 126 93 90 90 120 124 125 118 110 106 110 112 117 114 113 114 113 108 101 100 104 111
342 337 335 342 349 351 350 351 349 347 1 11 17 19 18 348 242 157 135 138 120 102 98 94 93 92 104 106 117 118 114 112 115 112 110 109 111 112 115 109 107 108 104
341 338 348 349 348 345 349 350 354 354 346 349 358 23 35 40 49 61 59 63 65 68 94 105 105 99 95 101 106 115 115 114 109 110 108 110 110 111 112 111 107 108 107
348 349 346 340 346 348 349 354 355 355 358 354 349 359 5 32 41 43 48 50 67 74 85 91 93 93 90 92 98 103 104 106 109 107 104 100 102 107 103 103 102 106 110
341 343 352 347 350 357 356 360 1 2 7 6 5 0 353 18 31 31 33 39 62 77 91 97 97 97 94 91 92 95 97 95 98 96 95 94 93 100 103 105 105 106 103
334 340 350 353 2 358 3 3 3 5 11 15 12 10 17 32 34 42 51 51 57 60 71 83 89 94 99 100 99 98 93 95 94 96 95 98 100 99 96 93 94 96 104
346 345 354 359 359 4 11 8 8 13 16 19 15 19 30 36 33 39 45 50 52 56 63 71 71 71 77 87 96 96 92 90 92 98 98 96 97 96 97 97 97 97 101
352 356 0 6 9 7 12 19 21 18 21 28 28 32 36 38 36 37 42 45 51 55 56 65 70 69 65 66 67 78 90 92 96 103 102 99 99 98 98 98 99 96 93
1 2 7 7 13 19 16 17 26 27 26 32 34 38 41 44 45 41 45 48 52 55 60 65 64 65 66 66 69 71 77 81 86 86 95 101 101 99 98 94 91 93 92
7 8 9 10 15 18 20 24 26 32 34 35 35 40 43 46 48 49 50 56 56 58 56 58 64 65 66 69 72 73 77 80 85 89 92 95 96 96 96 96 99 91 95
15 19 16 14 20 22 29 28 29 30 35 41 43 42 46 51 52 53 55 60 62 60 64 62 61 63 65 65 71 76 79 82 83 88 94 95 95 94 95 98 98 100 104